[[{"header":{"parameterUnit":"m.s-1","parameterCategory":1,"la1":30.2991,"la2":30.254,"lo1":-89.0895,"lo2":-89.0444,"dy":0.0017,"dx":0.0017,"nx":28,"ny":28,"refTime":"2023-07-28T09:00:00:Z","depth":0,"parameterNumber":2,"parameterNumberName":"U-component_of_WINDS"},"data":[0,0,0,0,0,0,0,0,0,0,0,0,0,0,0,0,0,0,0,0,0,0,0,0,0,0,0,0,0,0,0,0,0,0,0,0,0,0,0,0,0,0,0,0,0,0,0,0,0,0,0,0,0,0,0,0,0,0,0.1547,0.1547,0,0.1537,0.1537,0.1536,0.1517,0.1516,0.1516,0.1515,0.1505,0.1505,0.1505,0,0,0,0,0,0,0,0,0,0,0,0,0,0.1551,0.1551,0.1547,0.1547,0.1547,0.1537,0.1537,0.1536,0.1517,0.1516,0.1516,0.1515,0.1505,0.1505,0.1505,0,0,0,0,0,0,0,0,0,0,0,0,0,0.1546,0.1551,0.1547,0.1536,0.1535,0.1537,0.1537,0.1536,0.1517,0.1516,0.1516,0.1515,0.1505,0.1505,0.1506,0.1518,0,0,0.1506,0.1506,0,0,0,0,0,0,0,0,0.1546,0.1546,0.1538,0.1537,0.1535,0.1527,0.1534,0.153,0.1517,0.1524,0.1515,0.1515,0.1513,0.1513,0.1512,0.1518,0.1517,0.1506,0.1506,0.1506,0.1506,0,0,0,0,0,0,0,0.1546,0.1546,0.1543,0.1537,0.1536,0.1531,0.153,0.1533,0.1522,0.1523,0.1521,0.152,0.1512,0.1512,0.1512,0.1517,0.1506,0.1506,0.1506,0.1506,0.1533,0.1534,0,0,0,0,0,0,0.1548,0.1546,0.1543,0.1543,0.1539,0.1532,0.153,0.153,0.1522,0.152,0.1521,0.152,0.1512,0.1511,0.1511,0.1525,0.1506,0.1506,0.1506,0.1532,0.1533,0.1534,0,0,0,0,0,0,0.1548,0.1548,0.1544,0.1544,0.1543,0.1532,0.1533,0.1531,0.153,0.152,0.1518,0.1522,0.1511,0.1511,0.1517,0.1525,0.1506,0.1506,0.1532,0.1533,0.1533,0.1554,0,0,0,0,0,0,0.1549,0.1548,0.1553,0.1544,0.1543,0.1549,0.1533,0.1531,0.153,0.1528,0.1521,0.1519,0.1511,0.1516,0.1517,0.1525,0.1507,0.1531,0.1532,0.1533,0.1553,0.1556,0.1558,0,0,0,0,0,0.1549,0.1559,0.1553,0.1553,0.1549,0.155,0.1549,0.1539,0.1531,0.1535,0.1529,0.1519,0.1524,0.1517,0.1517,0.1525,0.153,0.1532,0.1533,0.1551,0.1555,0.1558,0,0,0,0,0,0,0.1569,0.1558,0.1551,0.1559,0.1555,0.1546,0.1552,0.1543,0.1542,0.154,0.1528,0.1527,0.1534,0.153,0.1523,0.1537,0.1526,0.1527,0.1539,0.1543,0.1546,0.1546,0.1507,0,0,0,0,0,0.1574,0.1576,0.1566,0.1574,0.1573,0.1563,0.1563,0.1555,0.1551,0.155,0.1544,0.1541,0.1541,0.1542,0.1542,0.1552,0.155,0.1558,0.1561,0.1563,0.1564,0.157,0.1573,0.1538,0.1538,0.1538,0,0,0.1585,0.1579,0.1581,0.1578,0.1574,0.1577,0.1561,0.1564,0.1566,0.155,0.1555,0.1551,0.1546,0.1554,0.1558,0.1551,0.1573,0.1565,0.1567,0.1567,0.1571,0.1575,0.1578,0.1539,0.1539,0.1539,0,0,0.1607,0.1602,0.1608,0.1605,0.16,0.1593,0.1595,0.1587,0.1584,0.1588,0.1577,0.1579,0.158,0.1577,0.1576,0.1597,0.1588,0.1597,0.1612,0.1617,0.162,0.1622,0.163,0.1632,0.1599,0.1599,0.1599,0,0.1621,0.1624,0.1613,0.1616,0.1615,0.1601,0.1608,0.1605,0.16,0.16,0.1593,0.1595,0.1591,0.1598,0.1603,0.1603,0.1604,0.1598,0.162,0.1622,0.1624,0.1631,0.1634,0.16,0.16,0.16,0.1599,0,0.1642,0.1644,0.1649,0.1645,0.1645,0.165,0.164,0.1641,0.1634,0.1628,0.1633,0.1628,0.1627,0.1628,0.1621,0.1634,0.1631,0.1622,0.161,0.1629,0.1635,0.1638,0.1601,0.1601,0.1601,0.16,0,0,0.1675,0.1665,0.1667,0.1665,0.1658,0.166,0.1664,0.1663,0.1664,0.1662,0.1665,0.1667,0.1659,0.1658,0.165,0.1655,0.1672,0.1646,0.1646,0.1651,0.1687,0.1693,0.1697,0.1666,0.1667,0.1667,0.1687,0,0.1695,0.1702,0.1692,0.1701,0.1703,0.169,0.1694,0.1691,0.1686,0.1687,0.1681,0.1682,0.1672,0.1671,0.1675,0.1669,0.1679,0.1668,0.167,0.167,0.1671,0.17,0.1706,0.1726,0.169,0.169,0.169,0,0.1719,0.1717,0.1726,0.1719,0.172,0.1724,0.1722,0.1723,0.1719,0.1715,0.1714,0.1705,0.1709,0.1698,0.1704,0.1696,0.1697,0.1694,0.1694,0.1694,0.1681,0.17,0.1731,0.1734,0.1694,0.1694,0.1694,0,0.1742,0.1742,0.1748,0.1746,0.1738,0.1741,0.1738,0.1734,0.1734,0.1732,0.1732,0.1731,0.1731,0.1731,0.1722,0.1715,0.1729,0.1717,0.1726,0.1726,0.173,0.173,0.1761,0.173,0.173,0.173,0.173,0,0.1765,0.1771,0.1758,0.1762,0.1768,0.1758,0.1765,0.176,0.1756,0.1759,0.1748,0.1751,0.1739,0.1741,0.1734,0.174,0.174,0.1737,0.1735,0.1738,0.1738,0.1738,0.1736,0.1731,0.1731,0.1731,0.173,0,0.1792,0.1783,0.1789,0.1781,0.1779,0.1784,0.1778,0.1781,0.1775,0.1779,0.1779,0.177,0.1771,0.1763,0.1763,0.1758,0.1767,0.1763,0.1769,0.1767,0.1777,0.1776,0.1809,0.1813,0.178,0.178,0.1781,0,0.1807,0.1811,0.1804,0.1805,0.1802,0.1804,0.1804,0.1794,0.1794,0.179,0.1794,0.1794,0.1794,0.1797,0.1791,0.179,0.1786,0.1798,0.1786,0.1789,0.1786,0.1786,0.1787,0.18,0.1801,0.1801,0.1801,0,0.1835,0.183,0.183,0.1829,0.183,0.1828,0.1826,0.1828,0.1817,0.1818,0.1819,0.1819,0.1819,0.1819,0.1818,0.1815,0.1807,0.1805,0.1807,0.181,0.1813,0.1811,0.1775,0.1804,0.1804,0.1804,0.1804,0.1804,0.1856,0.186,0.1855,0.1856,0.1853,0.1851,0.1854,0.1848,0.1849,0.1848,0.1842,0.1845,0.1841,0.1838,0.1836,0.1838,0.1833,0.1836,0.1837,0.1837,0.1839,0.1813,0.1838,0.1838,0.1838,0.1838,0.1838,0,0.1883,0.188,0.188,0.1878,0.1878,0.187,0.1868,0.1869,0.1871,0.1868,0.1868,0.187,0.187,0.1864,0.1864,0.1867,0.1863,0.1867,0.1867,0.1866,0.1844,0.1842,0.187,0.187,0.187,0.187,0.187,0.187,0.1897,0.1903,0.1898,0.1902,0.1898,0.19,0.19,0.1898,0.1896,0.1898,0.1899,0.1895,0.1891,0.189,0.1891,0.1889,0.1889,0.1895,0.1892,0.1871,0.1868,0.1865,0.1863,0.1895,0.1895,0.1914,0.1914,0.1914]},{"header":{"parameterUnit":"m.s-1","parameterCategory":1,"la1":30.2991,"la2":30.254,"lo1":-89.0895,"lo2":-89.0444,"dy":0.0017,"dx":0.0017,"nx":28,"ny":28,"refTime":"2023-07-28T09:00:00:Z","depth":0,"parameterNumber":3,"parameterNumberName":"V-component_of_WINDS"},"data":[0,0,0,0,0,0,0,0,0,0,0,0,0,0,0,0,0,0,0,0,0,0,0,0,0,0,0,0,0,0,0,0,0,0,0,0,0,0,0,0,0,0,0,0,0,0,0,0,0,0,0,0,0,0,0,0,0,0,-1.0673,-1.0673,0,-1.0674,-1.0674,-1.0674,-1.0688,-1.0688,-1.0688,-1.0689,-1.069,-1.069,-1.0689,0,0,0,0,0,0,0,0,0,0,0,0,0,-1.0681,-1.0681,-1.0673,-1.0673,-1.0673,-1.0674,-1.0674,-1.0674,-1.0688,-1.0688,-1.0688,-1.0689,-1.069,-1.069,-1.0689,0,0,0,0,0,0,0,0,0,0,0,0,0,-1.0679,-1.068,-1.0673,-1.068,-1.068,-1.0674,-1.0674,-1.0674,-1.0688,-1.0688,-1.0689,-1.0689,-1.069,-1.069,-1.0689,-1.0677,0,0,-1.0688,-1.0688,0,0,0,0,0,0,0,0,-1.0679,-1.0679,-1.0679,-1.0679,-1.068,-1.0681,-1.0678,-1.0675,-1.0687,-1.0685,-1.0689,-1.0689,-1.0687,-1.0687,-1.0686,-1.0677,-1.0677,-1.0688,-1.0688,-1.0688,-1.0687,0,0,0,0,0,0,0,-1.0679,-1.0679,-1.0673,-1.0679,-1.0679,-1.0682,-1.0683,-1.0677,-1.0683,-1.0685,-1.0686,-1.0686,-1.0687,-1.0686,-1.0686,-1.0677,-1.0688,-1.0688,-1.0687,-1.0687,-1.0657,-1.0657,0,0,0,0,0,0,-1.0679,-1.0679,-1.0673,-1.0674,-1.0681,-1.0682,-1.0682,-1.068,-1.0683,-1.0684,-1.0686,-1.0687,-1.0687,-1.0686,-1.0686,-1.0671,-1.0688,-1.0687,-1.0687,-1.0658,-1.0657,-1.0657,0,0,0,0,0,0,-1.0679,-1.0678,-1.0673,-1.0677,-1.0676,-1.0681,-1.0679,-1.068,-1.0679,-1.0683,-1.0684,-1.0684,-1.0687,-1.0687,-1.0679,-1.0671,-1.0687,-1.0687,-1.0658,-1.0658,-1.0657,-1.0641,0,0,0,0,0,0,-1.0679,-1.0678,-1.0673,-1.0676,-1.0676,-1.0666,-1.0679,-1.068,-1.0678,-1.068,-1.0682,-1.0683,-1.0687,-1.0679,-1.0678,-1.0671,-1.0686,-1.0659,-1.0658,-1.0657,-1.0642,-1.064,-1.0637,0,0,0,0,0,-1.0679,-1.0669,-1.0673,-1.0672,-1.067,-1.0666,-1.0666,-1.0671,-1.0678,-1.0673,-1.0676,-1.0683,-1.0672,-1.0679,-1.0678,-1.067,-1.066,-1.0658,-1.0657,-1.0643,-1.064,-1.0638,0,0,0,0,0,0,-1.0665,-1.0669,-1.0674,-1.0665,-1.0665,-1.0668,-1.0662,-1.0668,-1.0666,-1.0668,-1.0675,-1.0675,-1.0666,-1.0667,-1.0674,-1.0657,-1.0667,-1.0666,-1.0657,-1.0654,-1.0652,-1.0651,-1.0686,0,0,0,0,0,-1.0661,-1.0657,-1.0661,-1.0652,-1.0652,-1.0657,-1.0655,-1.066,-1.066,-1.066,-1.0662,-1.0662,-1.0659,-1.0657,-1.0654,-1.0643,-1.0643,-1.0637,-1.0634,-1.0633,-1.0631,-1.0624,-1.0621,-1.0653,-1.0653,-1.0653,0,0,-1.0652,-1.0654,-1.0651,-1.0649,-1.065,-1.0645,-1.0657,-1.0652,-1.0649,-1.066,-1.0652,-1.0654,-1.0654,-1.0644,-1.064,-1.0645,-1.0622,-1.0631,-1.0629,-1.0629,-1.0622,-1.0619,-1.0617,-1.0652,-1.0652,-1.0652,0,0,-1.0633,-1.0635,-1.0627,-1.0628,-1.0628,-1.0632,-1.063,-1.0633,-1.0634,-1.0627,-1.0635,-1.0631,-1.0625,-1.0625,-1.0624,-1.0605,-1.0611,-1.0604,-1.0592,-1.0585,-1.0582,-1.058,-1.0572,-1.057,-1.0603,-1.0603,-1.0603,0,-1.0622,-1.0616,-1.0623,-1.0617,-1.0615,-1.0625,-1.0617,-1.0617,-1.0617,-1.0616,-1.0622,-1.0614,-1.0616,-1.0605,-1.0601,-1.06,-1.0598,-1.0603,-1.0582,-1.058,-1.0578,-1.0571,-1.0568,-1.0602,-1.0602,-1.0602,-1.0602,0,-1.0602,-1.0597,-1.0591,-1.059,-1.0588,-1.0581,-1.0587,-1.0584,-1.0589,-1.0592,-1.0584,-1.0586,-1.0583,-1.0581,-1.0586,-1.0571,-1.0574,-1.0581,-1.0591,-1.0574,-1.0567,-1.0565,-1.06,-1.0601,-1.0601,-1.0601,0,0,-1.0573,-1.0577,-1.0574,-1.0574,-1.0575,-1.0572,-1.0565,-1.0563,-1.056,-1.056,-1.0554,-1.0549,-1.0555,-1.0554,-1.0559,-1.0553,-1.0536,-1.056,-1.056,-1.0555,-1.052,-1.0514,-1.051,-1.0541,-1.054,-1.054,-1.0519,0,-1.0555,-1.0544,-1.0549,-1.0537,-1.0533,-1.0542,-1.0536,-1.0537,-1.0539,-1.0535,-1.0538,-1.0534,-1.0543,-1.0542,-1.0537,-1.054,-1.0529,-1.0541,-1.0535,-1.0534,-1.0533,-1.0507,-1.0501,-1.0481,-1.0517,-1.0516,-1.0516,0,-1.0531,-1.0529,-1.0517,-1.0519,-1.0517,-1.0512,-1.051,-1.0506,-1.0507,-1.0509,-1.0507,-1.0513,-1.0507,-1.0517,-1.0508,-1.0516,-1.0513,-1.0514,-1.0514,-1.0512,-1.0523,-1.0504,-1.0475,-1.0472,-1.0512,-1.0513,-1.0513,0,-1.051,-1.0505,-1.0497,-1.0496,-1.0499,-1.0495,-1.0495,-1.0496,-1.0494,-1.0492,-1.0491,-1.0489,-1.0487,-1.0485,-1.049,-1.0497,-1.0479,-1.049,-1.048,-1.048,-1.0475,-1.0475,-1.0444,-1.0475,-1.0475,-1.0475,-1.0476,0,-1.0488,-1.048,-1.0488,-1.0482,-1.0473,-1.048,-1.0471,-1.0473,-1.0473,-1.0468,-1.0476,-1.0471,-1.0479,-1.0474,-1.0478,-1.0469,-1.0469,-1.047,-1.0471,-1.0468,-1.0468,-1.0466,-1.0467,-1.0475,-1.0475,-1.0475,-1.0475,0,-1.0463,-1.0468,-1.0459,-1.0462,-1.0463,-1.0456,-1.0458,-1.0453,-1.0456,-1.045,-1.0449,-1.0454,-1.0449,-1.0454,-1.045,-1.0452,-1.044,-1.0443,-1.0439,-1.044,-1.0429,-1.043,-1.0395,-1.0391,-1.0426,-1.0425,-1.0425,0,-1.0448,-1.0442,-1.0444,-1.0441,-1.0441,-1.0437,-1.0435,-1.0442,-1.0439,-1.0439,-1.0433,-1.043,-1.0427,-1.0419,-1.0421,-1.0418,-1.0421,-1.0409,-1.042,-1.0418,-1.0419,-1.0419,-1.0418,-1.0406,-1.0406,-1.0406,-1.0405,0,-1.042,-1.0423,-1.042,-1.0417,-1.0414,-1.0413,-1.0412,-1.0409,-1.0416,-1.0412,-1.0407,-1.0405,-1.0401,-1.0396,-1.0394,-1.0394,-1.04,-1.0402,-1.0399,-1.0396,-1.0394,-1.0394,-1.0432,-1.0402,-1.0403,-1.0403,-1.0403,-1.0403,-1.0399,-1.0394,-1.0394,-1.039,-1.039,-1.0389,-1.0384,-1.0386,-1.0383,-1.0379,-1.0384,-1.0377,-1.0378,-1.0375,-1.0375,-1.037,-1.0375,-1.0371,-1.037,-1.0368,-1.0366,-1.0396,-1.0369,-1.037,-1.037,-1.037,-1.037,0,-1.0371,-1.0372,-1.0368,-1.0366,-1.0362,-1.0369,-1.0368,-1.0365,-1.0359,-1.0359,-1.0356,-1.035,-1.0346,-1.0349,-1.0345,-1.034,-1.0343,-1.0339,-1.0339,-1.0339,-1.0363,-1.0365,-1.0337,-1.0337,-1.0337,-1.0337,-1.0337,-1.0337,-1.0355,-1.0346,-1.0349,-1.034,-1.0341,-1.0335,-1.0334,-1.0332,-1.0332,-1.0325,-1.0321,-1.0323,-1.0324,-1.032,-1.0317,-1.0318,-1.0315,-1.031,-1.0312,-1.0334,-1.0337,-1.034,-1.0342,-1.031,-1.031,-1.0288,-1.0288,-1.0287]}]]